Regional Weather Roundup
Issued by NWS Goodland, KS

Home | Current Version | Previous Version | Text Only | Print | Product List | Glossary On
Versions: 1 2 3 4 5 6 7 8 9 10 11 12 13 14 15 16 17 18 19 20 21 22 23 24 25 26 27 28 29 30 31 32 33 34 35 36 37 38 39 40 41 42 43 44 45 46 47 48 49 50
000
ASUS43 KGLD 040908
RWRGLD

GOODLAND FORECAST AREA HOURLY WEATHER ROUNDUP
NATIONAL WEATHER SERVICE GOODLAND KS
300 AM MDT SAT JUL 04 2015

...OFFICIAL OBSERVATIONS...

CITY           SKY/WX    TMP DP  RH WIND       PRES   REMARKS
GOODLAND KS    PTCLDY    66  59  78 S10       30.03F
HILL CITY KS   PTCLDY    62  58  86 E3        30.00F
IMPERIAL NEB   PTCLDY    64  58  80 SE8       30.00F
MCCOOK NEB     MOCLDY    65  59  81 SE5       30.00F
AKRON CO       CLEAR     64  60  87 S12       30.02F
BURLINGTON CO  CLEAR     63  60  90 SE12      30.04F
LIMON CO       CLEAR     56  56 100 SE3       30.09F
$$

...UNOFFICIAL OBSERVATIONS...

CITY           SKY/WX    TMP DP  RH WIND       PRES   REMARKS
COLBY KS       CLEAR     66  61  82 S8        30.04S
GOVE KS          N/A     64  32  30 MISG        N/A
NORTON KS      CLEAR     63  55  77 SE6       30.00
SHARON SPRINGS   N/A     66  61  84 S12         N/A
KIT CARSON CO    N/A     62  58  86 MISG        N/A
$$



USA.gov is the U.S. government's official web portal to all federal, state and local government web resources and services.